TimeCDT,TemperatureF,Dew PointF,Humidity,Sea Level PressureIn,VisibilityMPH,Wind Direction,Wind SpeedMPH,Gust SpeedMPH,PrecipitationIn,Events,Conditions,WindDirDegrees,DateUTC
12:00 AM,75.0,57.0,53,29.86,7.0,West,20.7,44.9,N/A,,Squalls,270,2013-05-19 05:00:00
12:13 AM,69.1,59.0,70,29.86,10.0,WNW,20.7,29.9,0.00,Rain,Light Rain,300,2013-05-19 05:13:00
12:21 AM,66.0,60.1,81,29.84,5.0,NW,20.7,29.9,0.02,Rain-Thunderstorm,Heavy Thunderstorms and Rain,310,2013-05-19 05:21:00
12:53 AM,64.0,60.1,87,29.81,5.0,NNW,8.1,-,0.21,Rain-Thunderstorm,Light Thunderstorms and Rain,340,2013-05-19 05:53:00
1:06 AM,63.0,60.1,90,29.83,1.5,Calm,Calm,-,0.04,Rain-Thunderstorm,Heavy Thunderstorms and Rain,0,2013-05-19 06:06:00
1:15 AM,64.0,60.1,87,29.80,2.5,North,10.4,-,0.15,Rain-Thunderstorm,Light Rain,360,2013-05-19 06:15:00
1:22 AM,64.0,60.1,87,29.79,10.0,NNE,5.8,-,0.15,Rain,Light Rain,30,2013-05-19 06:22:00
1:53 AM,63.0,60.1,90,29.76,10.0,East,5.8,-,0.15,,Clear,100,2013-05-19 06:53:00
2:53 AM,63.0,60.1,90,29.75,10.0,ESE,8.1,-,N/A,,Clear,110,2013-05-19 07:53:00
3:53 AM,63.0,60.1,90,29.75,10.0,East,3.5,-,N/A,,Scattered Clouds,100,2013-05-19 08:53:00
4:53 AM,62.6,60.8,94,29.73,10.0,ESE,9.2,-,N/A,,Clear,110,2013-05-19 09:53:00
5:53 AM,64.0,61.0,90,29.71,10.0,ESE,5.8,-,0.01,Rain,Light Rain,120,2013-05-19 10:53:00
6:31 AM,66.0,61.0,84,29.73,10.0,South,12.7,-,0.02,Rain-Thunderstorm,Light Thunderstorms and Rain,180,2013-05-19 11:31:00
6:46 AM,66.0,61.0,84,29.74,9.0,South,15.0,-,0.05,Rain,Light Rain,170,2013-05-19 11:46:00
6:53 AM,66.2,60.8,83,29.74,9.0,SSE,15.0,-,N/A,Rain,Light Rain,160,2013-05-19 11:53:00
7:09 AM,66.0,61.0,84,29.74,10.0,SE,17.3,-,0.02,Rain-Thunderstorm,Light Rain,140,2013-05-19 12:09:00
7:38 AM,64.9,61.0,87,29.69,10.0,SE,13.8,24.2,0.08,Rain,Light Rain,130,2013-05-19 12:38:00
7:53 AM,64.9,61.0,87,29.66,10.0,SE,11.5,23.0,0.09,Rain,Light Rain,130,2013-05-19 12:53:00
8:53 AM,66.0,62.1,87,29.67,10.0,SSE,9.2,-,0.00,,Clear,160,2013-05-19 13:53:00
9:53 AM,72.0,62.1,71,29.61,10.0,SSE,18.4,27.6,N/A,,Clear,150,2013-05-19 14:53:00
10:53 AM,75.9,62.1,62,29.63,10.0,SSE,15.0,25.3,N/A,,Clear,160,2013-05-19 15:53:00
11:53 AM,81.0,63.0,54,29.63,10.0,SSE,11.5,-,N/A,,Clear,160,2013-05-19 16:53:00
12:53 PM,79.0,66.0,64,29.64,10.0,South,13.8,26.5,N/A,,Overcast,180,2013-05-19 17:53:00
1:53 PM,78.8,66.2,65,29.66,10.0,South,17.3,-,N/A,,Overcast,170,2013-05-19 18:53:00
2:53 PM,80.6,68.0,65,29.63,10.0,SSE,11.5,20.7,N/A,,Mostly Cloudy,160,2013-05-19 19:53:00
3:53 PM,80.1,68.0,67,29.59,10.0,South,5.8,-,N/A,,Mostly Cloudy,170,2013-05-19 20:53:00
4:29 PM,80.1,69.1,69,29.59,10.0,SSE,6.9,-,N/A,Thunderstorm,Overcast,150,2013-05-19 21:29:00
4:44 PM,80.1,69.1,69,29.57,10.0,SE,8.1,-,N/A,,Overcast,140,2013-05-19 21:44:00
4:53 PM,81.0,66.0,60,29.56,10.0,South,15.0,24.2,N/A,,Overcast,170,2013-05-19 21:53:00
5:53 PM,79.0,66.0,64,29.56,10.0,SSE,16.1,21.9,N/A,,Mostly Cloudy,160,2013-05-19 22:53:00
6:04 PM,77.0,66.9,71,29.56,8.0,SSE,15.0,21.9,0.00,Rain-Thunderstorm,Light Rain,150,2013-05-19 23:04:00
6:16 PM,77.0,66.0,69,29.59,10.0,South,12.7,-,0.00,Rain-Thunderstorm,Light Thunderstorms and Rain,190,2013-05-19 23:16:00
6:34 PM,72.0,64.9,78,29.66,2.0,SSW,34.5,61.0,0.02,Rain-Thunderstorm,Light Thunderstorms and Rain,210,2013-05-19 23:34:00
6:41 PM,64.0,61.0,90,29.64,1.0,SW,12.7,61.0,0.19,Rain-Thunderstorm,Heavy Thunderstorms and Rain,220,2013-05-19 23:41:00
6:46 PM,64.0,61.0,90,29.63,3.0,SSW,8.1,34.5,0.22,Rain-Thunderstorm,Thunderstorms and Rain,200,2013-05-19 23:46:00
6:53 PM,64.0,60.1,87,29.60,9.0,SSW,8.1,-,0.23,Rain-Thunderstorm,Light Thunderstorms and Rain,210,2013-05-19 23:53:00
7:20 PM,64.0,59.0,84,29.54,10.0,ESE,20.7,-,0.03,Rain-Thunderstorm,Light Rain,110,2013-05-20 00:20:00
7:38 PM,64.0,60.1,87,29.60,10.0,SSE,17.3,25.3,0.03,,Scattered Clouds,150,2013-05-20 00:38:00
7:53 PM,64.9,60.1,84,29.59,10.0,South,8.1,-,0.03,,Clear,180,2013-05-20 00:53:00
8:53 PM,64.9,59.0,81,29.63,10.0,SW,11.5,18.4,N/A,,Clear,230,2013-05-20 01:53:00
9:53 PM,64.0,57.9,80,29.60,10.0,SSW,10.4,-,N/A,,Clear,210,2013-05-20 02:53:00
10:53 PM,64.4,57.2,77,29.62,10.0,West,5.8,-,N/A,,Clear,280,2013-05-20 03:53:00
11:53 PM,62.1,57.9,86,29.65,10.0,South,5.8,-,N/A,,Clear,170,2013-05-20 04:53:00